| time (UTC) | temp C | wind direction | speed KPH | gust KPH | rain 1hr cm | rain 24hr cm | rain mn cm | humidity % | barometer mb |
| 20260510064211 | 13 | 274 | 3.2 | 9.7 | 0.00 | 0.05 | 0.00 | 67 | 1010.6 |
| 20260510063711 | 14 | 262 | 3.2 | 9.7 | 0.00 | 0.05 | 0.00 | 67 | 1010.6 |
| 20260510063211 | 14 | 280 | 3.2 | 6.4 | 0.00 | 0.05 | 0.00 | 66 | 1010.7 |
| 20260510062941 | 14 | 329 | 3.2 | 6.4 | 0.00 | 0.05 | 0.00 | 66 | 1010.6 |
| 20260510062212 | 14 | 269 | 3.2 | 4.8 | 0.00 | 0.05 | 0.00 | 65 | 1010.7 |
| 20260510061711 | 14 | 277 | 3.2 | 8.0 | 0.00 | 0.05 | 0.00 | 65 | 1010.7 |
| 20260510061211 | 14 | 266 | 3.2 | 8.0 | 0.00 | 0.05 | 0.00 | 64 | 1010.7 |
| 20260510060712 | 14 | 280 | 3.2 | 11.3 | 0.00 | 0.05 | 0.00 | 64 | 1010.7 |
| 20260510060212 | 14 | 298 | 3.2 | 11.3 | 0.00 | 0.05 | 0.00 | 64 | 1010.7 |
| 20260510055943 | 14 | 322 | 3.2 | 6.4 | 0.00 | 0.05 | 0.00 | 65 | 1010.7 |
| 20260510055208 | 14 | 242 | 3.2 | 6.4 | 0.00 | 0.05 | 0.00 | 65 | 1010.7 |
| 20260510054709 | 14 | 339 | 1.6 | 4.8 | 0.00 | 0.05 | 0.00 | 65 | 1010.7 |
| 20260510054204 | 14 | 279 | 1.6 | 6.4 | 0.00 | 0.05 | 0.00 | 65 | 1010.7 |
| 20260510053703 | 14 | 315 | 1.6 | 6.4 | 0.00 | 0.05 | 0.00 | 64 | 1010.7 |
| 20260510053203 | 14 | 332 | 3.2 | 8.0 | 0.00 | 0.05 | 0.00 | 64 | 1010.7 |
| 20260510052703 | 14 | 319 | 4.8 | 9.7 | 0.00 | 0.05 | 0.00 | 63 | 1010.6 |
| 20260510052203 | 14 | 300 | 3.2 | 9.7 | 0.00 | 0.05 | 0.00 | 64 | 1010.5 |
| 20260510051203 | 13 | 278 | 1.6 | 4.8 | 0.00 | 0.05 | 0.00 | 66 | 1010.7 |
| 20260510050703 | 13 | 310 | 3.2 | 4.8 | 0.00 | 0.05 | 0.00 | 66 | 1010.8 |
| 20260510050203 | 13 | 321 | 3.2 | 6.4 | 0.00 | 0.05 | 0.00 | 66 | 1010.8 |
| 20260510045703 | 13 | 314 | 3.2 | 6.4 | 0.00 | 0.05 | 0.00 | 66 | 1010.8 |
| 20260510045204 | 13 | 284 | 1.6 | 4.8 | 0.00 | 0.05 | 0.00 | 66 | 1010.9 |
| 20260510044704 | 13 | 290 | 3.2 | 6.4 | 0.00 | 0.05 | 0.00 | 66 | 1010.9 |
| 20260510044204 | 14 | 289 | 3.2 | 6.4 | 0.00 | 0.05 | 0.00 | 66 | 1010.9 |
| 20260510043704 | 14 | 331 | 3.2 | 8.0 | 0.00 | 0.05 | 0.00 | 66 | 1010.9 |
| 20260510043200 | 14 | 315 | 3.2 | 8.0 | 0.00 | 0.05 | 0.00 | 66 | 1010.9 |
| 20260510042658 | 14 | 293 | 3.2 | 4.8 | 0.00 | 0.05 | 0.00 | 66 | 1011.0 |
| 20260510042418 | 13 | 282 | 1.6 | 4.8 | 0.00 | 0.05 | 0.00 | 66 | 1011.0 |
| 20260510041658 | 13 | 310 | 1.6 | 6.4 | 0.00 | 0.05 | 0.00 | 67 | 1011.0 |
| 20260510041159 | 13 | 306 | 1.6 | 6.4 | 0.00 | 0.05 | 0.00 | 67 | 1011.0 |
| 20260510040658 | 13 | 301 | 1.6 | 8.0 | 0.00 | 0.05 | 0.00 | 69 | 1011.0 |
| 20260510040422 | 13 | 309 | 3.2 | 8.0 | 0.00 | 0.05 | 0.00 | 69 | 1010.9 |
| 20260510035658 | 13 | 323 | 1.6 | 4.8 | 0.00 | 0.05 | 0.05 | 70 | 1011.0 |
| 20260510035158 | 13 | 289 | 1.6 | 4.8 | 0.00 | 0.05 | 0.05 | 70 | 1011.0 |
| 20260510034658 | 14 | 300 | 1.6 | 3.2 | 0.00 | 0.05 | 0.05 | 69 | 1011.0 |
| 20260510034158 | 14 | 337 | 1.6 | 3.2 | 0.00 | 0.05 | 0.05 | 69 | 1011.1 |
| 20260510033658 | 14 | 339 | 1.6 | 4.8 | 0.00 | 0.05 | 0.05 | 68 | 1011.1 |
| 20260510033416 | 14 | 323 | 1.6 | 4.8 | 0.00 | 0.05 | 0.05 | 67 | 1011.1 |
| 20260510032656 | 14 | 282 | 1.6 | 4.8 | 0.00 | 0.05 | 0.05 | 68 | 1011.1 |
| 20260510032156 | 14 | 329 | 1.6 | 3.2 | 0.00 | 0.05 | 0.05 | 67 | 1011.0 |
| 20260510031656 | 14 | 309 | 1.6 | 4.8 | 0.00 | 0.05 | 0.05 | 69 | 1010.9 |
| 20260510031425 | 14 | 319 | 1.6 | 4.8 | 0.00 | 0.05 | 0.05 | 70 | 1011.0 |
| 20260510030655 | 14 | 0 | 1.6 | 3.2 | 0.00 | 0.05 | 0.05 | 70 | 1010.9 |
| 20260510030411 | 14 | 358 | 1.6 | 4.8 | 0.00 | 0.05 | 0.05 | 70 | 1010.9 |
| 20260510025155 | 13 | 0 | 1.6 | 3.2 | 0.00 | 0.05 | 0.05 | 71 | 1010.8 |
| 20260510024653 | 13 | 232 | 1.6 | 4.8 | 0.00 | 0.05 | 0.05 | 74 | 1010.7 |
| 20260510024153 | 14 | 0 | 1.6 | 4.8 | 0.00 | 0.05 | 0.05 | 75 | 1010.7 |
| 20260510023653 | 14 | 312 | 1.6 | 4.8 | 0.00 | 0.05 | 0.05 | 73 | 1010.7 |
| 20260510023154 | 14 | 0 | 1.6 | 4.8 | 0.00 | 0.05 | 0.05 | 72 | 1010.5 |
| 20260510022654 | 14 | 350 | 1.6 | 3.2 | 0.00 | 0.05 | 0.05 | 72 | 1010.5 |
| 20260510022418 | 14 | 348 | 0.0 | 3.2 | 0.00 | 0.05 | 0.05 | 73 | 1010.5 |
| 20260510021653 | 14 | 0 | 0.0 | 3.2 | 0.00 | 0.05 | 0.05 | 73 | 1010.4 |
| 20260510021153 | 15 | 0 | 0.0 | 3.2 | 0.00 | 0.05 | 0.05 | 72 | 1010.3 |
| 20260510020915 | 15 | 18 | 0.0 | 4.8 | 0.00 | 0.05 | 0.05 | 72 | 1010.3 |
| 20260510020154 | 15 | 355 | 1.6 | 4.8 | 0.00 | 0.05 | 0.05 | 71 | 1010.2 |
| 20260510015651 | 15 | 245 | 1.6 | 4.8 | 0.00 | 0.05 | 0.05 | 70 | 1010.0 |
| 20260510015150 | 15 | 310 | 1.6 | 4.8 | 0.00 | 0.05 | 0.05 | 72 | 1009.9 |
| 20260510014650 | 15 | 328 | 1.6 | 4.8 | 0.00 | 0.05 | 0.05 | 73 | 1009.9 |
| 20260510014149 | 15 | 334 | 1.6 | 4.8 | 0.00 | 0.05 | 0.05 | 73 | 1009.7 |
| 20260510013648 | 15 | 319 | 1.6 | 4.8 | 0.00 | 0.05 | 0.05 | 73 | 1009.6 |
| 20260510013148 | 15 | 307 | 0.0 | 3.2 | 0.00 | 0.05 | 0.05 | 71 | 1009.6 |
| 20260510012648 | 15 | 0 | 0.0 | 3.2 | 0.00 | 0.05 | 0.05 | 71 | 1009.6 |
| 20260510012147 | 15 | 0 | 0.0 | 1.6 | 0.00 | 0.05 | 0.05 | 71 | 1009.6 |
| 20260510011919 | 15 | 0 | 0.0 | 1.6 | 0.00 | 0.05 | 0.05 | 71 | 1009.5 |
| 20260510011148 | 16 | 0 | 0.0 | 3.2 | 0.00 | 0.05 | 0.05 | 70 | 1009.4 |
| 20260510010648 | 16 | 0 | 0.0 | 3.2 | 0.00 | 0.05 | 0.05 | 68 | 1009.3 |
| 20260510010149 | 16 | 306 | 0.0 | 3.2 | 0.00 | 0.05 | 0.05 | 68 | 1009.2 |
| 20260510005648 | 16 | 0 | 1.6 | 3.2 | 0.00 | 0.05 | 0.05 | 68 | 1009.3 |
| 20260510005412 | 16 | 0 | 0.0 | 3.2 | 0.00 | 0.05 | 0.05 | 67 | 1009.2 |
| 20260510004645 | 17 | 346 | 0.0 | 3.2 | 0.00 | 0.05 | 0.05 | 65 | 1009.0 |
| 20260510004145 | 17 | 0 | 0.0 | 1.6 | 0.00 | 0.05 | 0.05 | 64 | 1008.9 |
| 20260510003644 | 17 | 0 | 0.0 | 4.8 | 0.00 | 0.05 | 0.05 | 63 | 1008.8 |
| 20260510003144 | 18 | 0 | 0.0 | 4.8 | 0.00 | 0.05 | 0.05 | 61 | 1008.7 |
| 20260510002645 | 18 | 308 | 0.0 | 4.8 | 0.00 | 0.05 | 0.05 | 60 | 1008.6 |
| 20260510002144 | 18 | 0 | 0.0 | 3.2 | 0.00 | 0.05 | 0.05 | 59 | 1008.6 |
| 20260510001904 | 19 | 234 | 0.0 | 3.2 | 0.00 | 0.05 | 0.05 | 58 | 1008.5 |
| 20260510001142 | 19 | 0 | 1.6 | 6.4 | 0.00 | 0.05 | 0.05 | 57 | 1008.5 |
| 20260510000642 | 19 | 0 | 1.6 | 6.4 | 0.00 | 0.05 | 0.05 | 56 | 1008.4 |
| 20260510000143 | 19 | 136 | 1.6 | 6.4 | 0.00 | 0.05 | 0.05 | 56 | 1008.3 |
| 20260509235901 | 20 | 0 | 1.6 | 4.8 | 0.00 | 0.05 | 0.05 | 55 | 1008.2 |
| 20260509235143 | 20 | 0 | 1.6 | 8.0 | 0.00 | 0.05 | 0.05 | 54 | 1008.2 |
| 20260509234644 | 20 | 0 | 1.6 | 8.0 | 0.00 | 0.05 | 0.05 | 53 | 1008.1 |
| 20260509234359 | 20 | 295 | 3.2 | 8.0 | 0.00 | 0.05 | 0.05 | 52 | 1008.1 |
| 20260509233642 | 21 | 0 | 3.2 | 9.7 | 0.00 | 0.05 | 0.05 | 51 | 1008.1 |
| 20260509233141 | 21 | 283 | 4.8 | 9.7 | 0.00 | 0.05 | 0.05 | 51 | 1008.1 |
| 20260509232641 | 21 | 289 | 3.2 | 9.7 | 0.00 | 0.05 | 0.05 | 51 | 1008.1 |
| 20260509232141 | 21 | 282 | 3.2 | 9.7 | 0.00 | 0.05 | 0.05 | 52 | 1008.1 |
| 20260509231641 | 21 | 227 | 3.2 | 9.7 | 0.00 | 0.05 | 0.05 | 51 | 1008.1 |
| 20260509231409 | 21 | 284 | 3.2 | 8.0 | 0.00 | 0.05 | 0.05 | 51 | 1008.1 |
| 20260509230907 | 21 | 224 | 1.6 | 9.7 | 0.00 | 0.05 | 0.05 | 51 | 1008.1 |
| 20260509230141 | 21 | 0 | 3.2 | 9.7 | 0.00 | 0.05 | 0.05 | 51 | 1008.1 |
| 20260509225641 | 21 | 315 | 3.2 | 9.7 | 0.00 | 0.05 | 0.05 | 51 | 1008.1 |
| 20260509225141 | 21 | 0 | 3.2 | 11.3 | 0.00 | 0.05 | 0.05 | 51 | 1008.1 |
| 20260509224642 | 21 | 282 | 4.8 | 12.9 | 0.00 | 0.05 | 0.05 | 51 | 1008.1 |
| 20260509224142 | 21 | 240 | 4.8 | 12.9 | 0.00 | 0.05 | 0.05 | 50 | 1008.0 |
| 20260509223642 | 21 | 289 | 3.2 | 11.3 | 0.00 | 0.05 | 0.05 | 50 | 1008.2 |
| 20260509223142 | 21 | 293 | 4.8 | 12.9 | 0.00 | 0.05 | 0.05 | 49 | 1008.2 |
| 20260509222641 | 21 | 267 | 4.8 | 12.9 | 0.00 | 0.05 | 0.05 | 49 | 1008.2 |
| 20260509222138 | 21 | 261 | 4.8 | 11.3 | 0.00 | 0.05 | 0.05 | 49 | 1008.0 |
| 20260509221638 | 21 | 263 | 4.8 | 11.3 | 0.00 | 0.05 | 0.05 | 50 | 1008.2 |
| 20260509221138 | 21 | 280 | 4.8 | 19.3 | 0.00 | 0.05 | 0.05 | 51 | 1008.2 |
| 20260509220637 | 21 | 274 | 6.4 | 20.9 | 0.00 | 0.05 | 0.05 | 50 | 1008.1 |
| 20260509220134 | 21 | 299 | 6.4 | 20.9 | 0.00 | 0.05 | 0.05 | 49 | 1008.1 |
| 20260509215636 | 22 | 206 | 6.4 | 14.5 | 0.00 | 0.05 | 0.05 | 50 | 1008.1 |
| 20260509215135 | 22 | 183 | 6.4 | 14.5 | 0.00 | 0.05 | 0.05 | 50 | 1008.0 |
| 20260509214640 | 22 | 284 | 4.8 | 14.5 | 0.00 | 0.05 | 0.05 | 50 | 1008.0 |
| 20260509214139 | 21 | 242 | 4.8 | 16.1 | 0.00 | 0.05 | 0.05 | 49 | 1007.9 |
| 20260509213640 | 21 | 0 | 4.8 | 16.1 | 0.00 | 0.05 | 0.05 | 49 | 1008.0 |
| 20260509213409 | 21 | 252 | 4.8 | 14.5 | 0.00 | 0.05 | 0.05 | 50 | 1007.9 |
| 20260509212641 | 21 | 222 | 4.8 | 14.5 | 0.00 | 0.05 | 0.05 | 49 | 1007.9 |
| 20260509212134 | 21 | 298 | 4.8 | 17.7 | 0.00 | 0.05 | 0.05 | 51 | 1007.8 |
| 20260509211632 | 21 | 296 | 4.8 | 17.7 | 0.00 | 0.05 | 0.05 | 50 | 1007.9 |
| 20260509211129 | 21 | 18 | 3.2 | 14.5 | 0.00 | 0.05 | 0.05 | 51 | 1007.9 |
| 20260509210630 | 21 | 271 | 6.4 | 14.5 | 0.00 | 0.05 | 0.05 | 50 | 1007.9 |
| 20260509210130 | 20 | 289 | 6.4 | 16.1 | 0.00 | 0.05 | 0.05 | 50 | 1007.9 |
| 20260509205630 | 21 | 239 | 6.4 | 16.1 | 0.00 | 0.05 | 0.05 | 50 | 1007.8 |
| 20260509205130 | 21 | 288 | 6.4 | 14.5 | 0.00 | 0.05 | 0.05 | 50 | 1007.9 |
| 20260509204631 | 21 | 200 | 6.4 | 12.9 | 0.00 | 0.05 | 0.05 | 49 | 1007.9 |
| 20260509204130 | 21 | 298 | 4.8 | 16.1 | 0.00 | 0.05 | 0.05 | 49 | 1007.8 |
| 20260509203630 | 21 | 301 | 6.4 | 16.1 | 0.00 | 0.05 | 0.05 | 50 | 1007.5 |
| 20260509203354 | 21 | 304 | 6.4 | 16.1 | 0.00 | 0.05 | 0.05 | 49 | 1007.6 |
| 20260509202631 | 21 | 288 | 6.4 | 14.5 | 0.00 | 0.05 | 0.05 | 49 | 1007.6 |
| 20260509202131 | 20 | 281 | 8.0 | 16.1 | 0.00 | 0.05 | 0.05 | 49 | 1007.4 |
| 20260509201130 | 21 | 258 | 8.0 | 22.5 | 0.00 | 0.05 | 0.05 | 50 | 1007.6 |
| 20260509200632 | 21 | 268 | 8.0 | 17.7 | 0.00 | 0.05 | 0.05 | 47 | 1007.6 |
| 20260509200129 | 21 | 302 | 8.0 | 16.1 | 0.00 | 0.05 | 0.05 | 49 | 1007.5 |
| 20260509195628 | 21 | 309 | 8.0 | 16.1 | 0.00 | 0.05 | 0.05 | 48 | 1007.5 |
| 20260509195128 | 21 | 307 | 6.4 | 16.1 | 0.00 | 0.05 | 0.05 | 49 | 1007.7 |
| 20260509194628 | 21 | 302 | 8.0 | 20.9 | 0.00 | 0.05 | 0.05 | 47 | 1007.7 |
| 20260509194353 | 21 | 306 | 6.4 | 20.9 | 0.00 | 0.05 | 0.05 | 47 | 1007.7 |
| 20260509193128 | 21 | 151 | 6.4 | 16.1 | 0.00 | 0.05 | 0.05 | 47 | 1007.9 |
| 20260509192630 | 21 | 198 | 6.4 | 16.1 | 0.00 | 0.05 | 0.05 | 48 | 1007.9 |
| 20260509192128 | 21 | 294 | 6.4 | 17.7 | 0.00 | 0.05 | 0.05 | 49 | 1007.9 |
| 20260509191629 | 20 | 214 | 8.0 | 17.7 | 0.00 | 0.05 | 0.05 | 49 | 1008.0 |
| 20260509191126 | 20 | 264 | 8.0 | 16.1 | 0.00 | 0.05 | 0.05 | 50 | 1008.2 |
| 20260509190623 | 20 | 202 | 8.0 | 17.7 | 0.00 | 0.05 | 0.05 | 49 | 1008.1 |
| 20260509190124 | 21 | 296 | 8.0 | 17.7 | 0.00 | 0.05 | 0.05 | 48 | 1008.3 |
| 20260509185621 | 21 | 162 | 8.0 | 19.3 | 0.00 | 0.05 | 0.05 | 50 | 1008.2 |
| 20260509185125 | 21 | 184 | 6.4 | 19.3 | 0.00 | 0.05 | 0.05 | 47 | 1008.2 |
| 20260509184622 | 21 | 238 | 6.4 | 20.9 | 0.00 | 0.05 | 0.05 | 49 | 1008.2 |
| 20260509184343 | 20 | 296 | 8.0 | 20.9 | 0.00 | 0.05 | 0.05 | 49 | 1008.1 |
| 20260509183618 | 20 | 189 | 4.8 | 12.9 | 0.00 | 0.05 | 0.05 | 49 | 1008.4 |
| 20260509183118 | 20 | 247 | 4.8 | 17.7 | 0.00 | 0.05 | 0.05 | 48 | 1008.5 |
| 20260509182618 | 20 | 270 | 6.4 | 17.7 | 0.00 | 0.05 | 0.05 | 49 | 1008.5 |
| 20260509182114 | 20 | 276 | 8.0 | 16.1 | 0.00 | 0.05 | 0.05 | 48 | 1008.5 |
| 20260509181615 | 20 | 160 | 6.4 | 17.7 | 0.00 | 0.05 | 0.05 | 49 | 1008.5 |
| 20260509181339 | 20 | 246 | 6.4 | 19.3 | 0.00 | 0.05 | 0.05 | 50 | 1008.3 |
| 20260509180844 | 20 | 329 | 6.4 | 19.3 | 0.00 | 0.05 | 0.05 | 50 | 1008.3 |
| 20260509180114 | 20 | 291 | 6.4 | 19.3 | 0.00 | 0.05 | 0.05 | 50 | 1008.6 |
| 20260509175616 | 20 | 302 | 6.4 | 19.3 | 0.00 | 0.05 | 0.05 | 49 | 1008.7 |
| 20260509175113 | 20 | 275 | 6.4 | 14.5 | 0.00 | 0.05 | 0.05 | 50 | 1008.9 |
| 20260509174613 | 20 | 296 | 6.4 | 20.9 | 0.00 | 0.05 | 0.05 | 51 | 1008.8 |
| 20260509174110 | 20 | 43 | 6.4 | 20.9 | 0.00 | 0.05 | 0.05 | 52 | 1008.7 |
| 20260509173607 | 20 | 184 | 6.4 | 14.5 | 0.00 | 0.05 | 0.05 | 53 | 1008.8 |
| 20260509173107 | 20 | 232 | 8.0 | 16.1 | 0.00 | 0.05 | 0.05 | 53 | 1008.9 |
| 20260509172606 | 20 | 194 | 8.0 | 19.3 | 0.00 | 0.05 | 0.05 | 55 | 1009.0 |
| 20260509172111 | 19 | 302 | 8.0 | 19.3 | 0.00 | 0.05 | 0.05 | 55 | 1009.2 |
| 20260509171613 | 18 | 219 | 8.0 | 20.9 | 0.00 | 0.05 | 0.05 | 55 | 1009.3 |
| 20260509170943 | 19 | 276 | 6.4 | 14.5 | 0.00 | 0.05 | 0.05 | 54 | 1009.5 |
| 20260509165752 | 18 | 309 | 8.0 | 16.1 | 0.00 | 0.05 | 0.05 | 54 | 1009.4 |
| 20260509165252 | 18 | 346 | 6.4 | 16.1 | 0.00 | 0.05 | 0.05 | 54 | 1009.6 |
| 20260509165016 | 18 | 294 | 6.4 | 16.1 | 0.00 | 0.05 | 0.05 | 56 | 1009.3 |
| 20260509164252 | 18 | 260 | 6.4 | 16.1 | 0.00 | 0.05 | 0.05 | 58 | 1009.3 |
| 20260509163753 | 18 | 313 | 8.0 | 16.1 | 0.00 | 0.05 | 0.05 | 57 | 1009.2 |
| 20260509163250 | 17 | 212 | 6.4 | 17.7 | 0.00 | 0.05 | 0.05 | 59 | 1009.3 |
| 20260509162750 | 17 | 346 | 8.0 | 20.9 | 0.00 | 0.05 | 0.05 | 59 | 1009.5 |
| 20260509162248 | 17 | 269 | 9.7 | 20.9 | 0.00 | 0.05 | 0.05 | 58 | 1009.7 |
| 20260509161749 | 18 | 249 | 9.7 | 20.9 | 0.00 | 0.05 | 0.05 | 57 | 1009.7 |
| 20260509161248 | 18 | 210 | 9.7 | 20.9 | 0.00 | 0.05 | 0.05 | 58 | 1009.6 |
| 20260509160748 | 18 | 263 | 9.7 | 20.9 | 0.00 | 0.05 | 0.05 | 56 | 1009.5 |
| 20260509160249 | 18 | 296 | 8.0 | 16.1 | 0.00 | 0.05 | 0.05 | 57 | 1009.4 |
| 20260509155749 | 18 | 277 | 9.7 | 17.7 | 0.00 | 0.05 | 0.05 | 57 | 1009.4 |
| 20260509155249 | 17 | 230 | 9.7 | 17.7 | 0.00 | 0.05 | 0.05 | 57 | 1009.3 |
| 20260509155018 | 17 | 275 | 9.7 | 22.5 | 0.00 | 0.05 | 0.05 | 57 | 1009.2 |
| 20260509154249 | 17 | 286 | 8.0 | 22.5 | 0.00 | 0.05 | 0.05 | 57 | 1009.2 |
| 20260509154008 | 17 | 269 | 6.4 | 17.7 | 0.00 | 0.05 | 0.05 | 59 | 1009.5 |
| 20260509153515 | 17 | 328 | 6.4 | 17.7 | 0.03 | 0.05 | 0.05 | 60 | 1009.5 |
| 20260509152749 | 17 | 254 | 8.0 | 14.5 | 0.03 | 0.05 | 0.05 | 61 | 1009.5 |
| 20260509152243 | 17 | 295 | 6.4 | 19.3 | 0.03 | 0.05 | 0.05 | 60 | 1009.6 |
| 20260509152012 | 17 | 276 | 6.4 | 19.3 | 0.03 | 0.05 | 0.05 | 61 | 1009.7 |
| 20260509151245 | 17 | 225 | 6.4 | 17.7 | 0.05 | 0.05 | 0.05 | 60 | 1009.6 |
| 20260509150745 | 17 | 295 | 8.0 | 19.3 | 0.05 | 0.05 | 0.05 | 60 | 1009.7 |
| 20260509150244 | 17 | 167 | 8.0 | 19.3 | 0.05 | 0.05 | 0.05 | 59 | 1009.7 |
| 20260509145745 | 17 | 272 | 6.4 | 16.1 | 0.05 | 0.05 | 0.05 | 60 | 1009.3 |
| 20260509145244 | 17 | 169 | 4.8 | 12.9 | 0.05 | 0.05 | 0.05 | 61 | 1009.4 |
| 20260509144745 | 17 | 222 | 4.8 | 11.3 | 0.05 | 0.05 | 0.05 | 61 | 1009.5 |
| 20260509143745 | 16 | 288 | 8.0 | 14.5 | 0.05 | 0.05 | 0.05 | 62 | 1009.5 |
| 20260509143245 | 17 | 260 | 8.0 | 16.1 | 0.03 | 0.03 | 0.03 | 61 | 1009.4 |
| 20260509142745 | 17 | 254 | 8.0 | 17.7 | 0.03 | 0.03 | 0.03 | 62 | 1009.4 |
| 20260509142245 | 16 | 289 | 8.0 | 17.7 | 0.03 | 0.03 | 0.03 | 62 | 1009.2 |
| 20260509141745 | 16 | 308 | 8.0 | 16.1 | 0.03 | 0.03 | 0.03 | 63 | 1009.3 |
| 20260509141245 | 16 | 281 | 6.4 | 14.5 | 0.00 | 0.00 | 0.00 | 64 | 1009.2 |
| 20260509140742 | 16 | 323 | 6.4 | 14.5 | 0.00 | 0.00 | 0.00 | 66 | 1009.2 |
| 20260509140238 | 15 | 292 | 6.4 | 14.5 | 0.00 | 0.00 | 0.00 | 66 | 1009.5 |
| 20260509135238 | 15 | 312 | 6.4 | 14.5 | 0.00 | 0.00 | 0.00 | 67 | 1009.6 |
| 20260509134739 | 15 | 334 | 6.4 | 14.5 | 0.00 | 0.00 | 0.00 | 66 | 1009.8 |
| 20260509134239 | 15 | 300 | 6.4 | 14.5 | 0.00 | 0.00 | 0.00 | 66 | 1009.7 |
| 20260509133739 | 15 | 302 | 6.4 | 14.5 | 0.00 | 0.00 | 0.00 | 66 | 1009.7 |
| 20260509133239 | 15 | 260 | 6.4 | 11.3 | 0.00 | 0.00 | 0.00 | 67 | 1009.7 |
| 20260509132239 | 15 | 297 | 4.8 | 11.3 | 0.00 | 0.00 | 0.00 | 67 | 1009.9 |
| 20260509131739 | 15 | 294 | 4.8 | 11.3 | 0.00 | 0.00 | 0.00 | 67 | 1010.0 |
| 20260509131239 | 15 | 279 | 3.2 | 11.3 | 0.00 | 0.00 | 0.00 | 67 | 1010.0 |
| 20260509130739 | 15 | 311 | 3.2 | 9.7 | 0.00 | 0.00 | 0.00 | 68 | 1010.1 |
| 20260509130238 | 15 | 291 | 3.2 | 9.7 | 0.00 | 0.00 | 0.00 | 67 | 1010.1 |
| 20260509125734 | 15 | 324 | 3.2 | 9.7 | 0.00 | 0.00 | 0.00 | 68 | 1010.1 |
| 20260509125233 | 15 | 297 | 3.2 | 9.7 | 0.00 | 0.00 | 0.00 | 68 | 1010.1 |
| 20260509124951 | 15 | 304 | 3.2 | 9.7 | 0.00 | 0.00 | 0.00 | 69 | 1010.2 |
| 20260509123731 | 15 | 275 | 4.8 | 11.3 | 0.00 | 0.00 | 0.00 | 68 | 1010.2 |
| 20260509123233 | 14 | 338 | 4.8 | 14.5 | 0.00 | 0.00 | 0.00 | 68 | 1010.2 |
| 20260509122732 | 14 | 321 | 4.8 | 14.5 | 0.00 | 0.00 | 0.00 | 69 | 1010.2 |
| 20260509122232 | 14 | 293 | 3.2 | 9.7 | 0.00 | 0.00 | 0.00 | 69 | 1010.2 |
| 20260509121233 | 13 | 313 | 3.2 | 9.7 | 0.00 | 0.00 | 0.00 | 70 | 1010.1 |
| 20260509120956 | 13 | 318 | 3.2 | 9.7 | 0.00 | 0.00 | 0.00 | 70 | 1010.1 |
| 20260509120233 | 13 | 272 | 3.2 | 9.7 | 0.00 | 0.00 | 0.00 | 70 | 1010.1 |
| 20260509115732 | 13 | 279 | 3.2 | 6.4 | 0.00 | 0.00 | 0.00 | 70 | 1010.2 |
| 20260509115233 | 13 | 286 | 3.2 | 9.7 | 0.00 | 0.00 | 0.00 | 69 | 1010.1 |
| 20260509114228 | 13 | 297 | 3.2 | 8.0 | 0.00 | 0.00 | 0.00 | 69 | 1010.1 |
| 20260509113729 | 13 | 323 | 3.2 | 8.0 | 0.00 | 0.00 | 0.00 | 69 | 1010.1 |
| 20260509113227 | 12 | 311 | 3.2 | 8.0 | 0.00 | 0.00 | 0.00 | 69 | 1010.1 |
| 20260509112726 | 12 | 246 | 3.2 | 8.0 | 0.00 | 0.00 | 0.00 | 68 | 1010.1 |
| 20260509112222 | 12 | 319 | 3.2 | 8.0 | 0.00 | 0.00 | 0.00 | 68 | 1010.1 |
| 20260509111723 | 12 | 273 | 3.2 | 8.0 | 0.00 | 0.00 | 0.00 | 68 | 1010.1 |
| 20260509111223 | 12 | 249 | 3.2 | 8.0 | 0.00 | 0.00 | 0.00 | 68 | 1010.1 |
| 20260509110223 | 12 | 309 | 3.2 | 8.0 | 0.00 | 0.00 | 0.00 | 67 | 1010.1 |
| 20260509105723 | 12 | 280 | 1.6 | 6.4 | 0.00 | 0.00 | 0.00 | 67 | 1010.0 |
| 20260509104723 | 12 | 263 | 1.6 | 6.4 | 0.00 | 0.00 | 0.00 | 67 | 1009.9 |
| 20260509104223 | 12 | 0 | 3.2 | 4.8 | 0.00 | 0.00 | 0.00 | 66 | 1009.9 |
| 20260509103723 | 12 | 291 | 3.2 | 6.4 | 0.00 | 0.00 | 0.00 | 66 | 1009.9 |
| 20260509103223 | 12 | 318 | 3.2 | 6.4 | 0.00 | 0.00 | 0.00 | 65 | 1009.9 |
| 20260509102723 | 12 | 26 | 3.2 | 6.4 | 0.00 | 0.00 | 0.00 | 65 | 1010.0 |
| 20260509102222 | 12 | 273 | 3.2 | 6.4 | 0.00 | 0.00 | 0.00 | 65 | 1010.1 |
| 20260509101722 | 12 | 254 | 3.2 | 9.7 | 0.00 | 0.00 | 0.00 | 64 | 1010.0 |
| 20260509101222 | 13 | 307 | 3.2 | 9.7 | 0.00 | 0.00 | 0.00 | 64 | 1009.9 |
| 20260509100722 | 13 | 259 | 3.2 | 8.0 | 0.00 | 0.00 | 0.00 | 64 | 1010.0 |
| 20260509100223 | 13 | 291 | 3.2 | 9.7 | 0.00 | 0.00 | 0.00 | 64 | 1009.9 |
| 20260509095722 | 13 | 276 | 3.2 | 9.7 | 0.00 | 0.00 | 0.00 | 64 | 1009.9 |
| 20260509095222 | 13 | 274 | 4.8 | 9.7 | 0.00 | 0.00 | 0.00 | 63 | 1009.9 |
| 20260509094949 | 13 | 260 | 3.2 | 9.7 | 0.00 | 0.00 | 0.00 | 63 | 1009.9 |
| 20260509094222 | 13 | 289 | 3.2 | 8.0 | 0.00 | 0.00 | 0.00 | 64 | 1009.9 |
| 20260509093722 | 12 | 302 | 3.2 | 8.0 | 0.00 | 0.00 | 0.00 | 63 | 1009.8 |
| 20260509093223 | 12 | 265 | 3.2 | 8.0 | 0.00 | 0.00 | 0.00 | 63 | 1009.8 |
| 20260509092943 | 12 | 292 | 3.2 | 6.4 | 0.00 | 0.00 | 0.00 | 63 | 1009.9 |
| 20260509092218 | 12 | 244 | 3.2 | 8.0 | 0.00 | 0.00 | 0.00 | 63 | 1009.9 |
| 20260509091937 | 12 | 306 | 3.2 | 8.0 | 0.00 | 0.00 | 0.00 | 63 | 1009.9 |
| 20260509091218 | 12 | 250 | 1.6 | 4.8 | 0.00 | 0.00 | 0.00 | 63 | 1009.9 |
| 20260509090717 | 12 | 303 | 3.2 | 4.8 | 0.00 | 0.00 | 0.00 | 62 | 1010.1 |
| 20260509090218 | 12 | 0 | 3.2 | 6.4 | 0.00 | 0.00 | 0.00 | 62 | 1010.0 |
| 20260509085713 | 12 | 289 | 3.2 | 6.4 | 0.00 | 0.00 | 0.00 | 62 | 1010.0 |
| 20260509085217 | 12 | 313 | 1.6 | 8.0 | 0.00 | 0.00 | 0.00 | 62 | 1010.1 |
| 20260509084717 | 12 | 238 | 3.2 | 9.7 | 0.00 | 0.00 | 0.00 | 61 | 1010.0 |
| 20260509084444 | 12 | 251 | 3.2 | 9.7 | 0.00 | 0.00 | 0.00 | 61 | 1010.0 |
| 20260509083718 | 12 | 262 | 3.2 | 6.4 | 0.00 | 0.00 | 0.00 | 61 | 1010.1 |
| 20260509083437 | 12 | 309 | 3.2 | 6.4 | 0.00 | 0.00 | 0.00 | 60 | 1010.1 |
| 20260509082716 | 12 | 286 | 3.2 | 6.4 | 0.00 | 0.00 | 0.00 | 59 | 1010.1 |
| 20260509082217 | 12 | 239 | 1.6 | 6.4 | 0.00 | 0.00 | 0.00 | 59 | 1010.2 |
| 20260509081715 | 12 | 297 | 3.2 | 6.4 | 0.00 | 0.00 | 0.00 | 59 | 1010.2 |
| 20260509080211 | 12 | 296 | 3.2 | 8.0 | 0.00 | 0.00 | 0.00 | 57 | 1010.2 |
| 20260509075713 | 12 | 322 | 4.8 | 9.7 | 0.00 | 0.00 | 0.00 | 56 | 1010.2 |
| 20260509075212 | 12 | 274 | 3.2 | 9.7 | 0.00 | 0.00 | 0.00 | 56 | 1010.3 |
| 20260509074931 | 12 | 291 | 3.2 | 8.0 | 0.00 | 0.00 | 0.00 | 55 | 1010.3 |
| 20260509074212 | 12 | 319 | 3.2 | 8.0 | 0.00 | 0.00 | 0.00 | 55 | 1010.3 |
| 20260509073709 | 12 | 236 | 3.2 | 8.0 | 0.00 | 0.00 | 0.00 | 55 | 1010.3 |
| 20260509073207 | 12 | 266 | 1.6 | 4.8 | 0.00 | 0.00 | 0.00 | 55 | 1010.4 |
| 20260509072708 | 12 | 45 | 3.2 | 6.4 | 0.00 | 0.00 | 0.00 | 55 | 1010.5 |
| 20260509072208 | 12 | 315 | 3.2 | 8.0 | 0.00 | 0.00 | 0.00 | 55 | 1010.6 |
| 20260509071707 | 12 | 278 | 3.2 | 8.0 | 0.00 | 0.00 | 0.00 | 55 | 1010.6 |
| 20260509071207 | 12 | 295 | 1.6 | 6.4 | 0.00 | 0.00 | 0.00 | 55 | 1010.6 |
| 20260509070708 | 12 | 283 | 1.6 | 8.0 | 0.00 | 0.00 | 0.00 | 55 | 1010.7 |
| 20260509070208 | 12 | 0 | 1.6 | 8.0 | 0.00 | 0.00 | 0.00 | 55 | 1010.7 |
| 20260509065707 | 12 | 243 | 1.6 | 4.8 | 0.00 | 0.00 | 0.00 | 55 | 1010.7 |
| 20260509065206 | 12 | 326 | 1.6 | 4.8 | 0.00 | 0.00 | 0.00 | 55 | 1010.7 |
| 20260509064707 | 12 | 0 | 1.6 | 4.8 | 0.00 | 0.00 | 0.00 | 54 | 1010.8 |